Location: Unspecified
(41.5000°N, 0.0000°E)
Time: 08:23:45
(UTC+00:00)

deb Explorer IX - Pass Details

Date: 25 June 2019
Orbit: 539 x 1112 km, 38.8° (Epoch: 19 July)

Event Time Altitude Azimuth Distance (km) Brightness Sun altitude
Rises 15:45:34 0° 274° (W) 3,871 ? 40.6°
Reaches altitude 10° 15:48:18 10° 271° (W) 2,948 ? 40.0°
Maximum altitude 15:55:33 65° 192° (SSW) 1,205 ? 38.7°
Drops below altitude 10° 16:02:41 10° 112° (ESE) 2,894 ? 37.3°
Sets 16:05:21 0° 110° (ESE) 3,797 ? 36.9°
